THOR ABLESTAR DEB, 48826

Orbit data source: Space-Track

THOR ABLESTAR DEB, 48826 is space debris in LEO originally from a launch on Thu, 29 Jun 1961 UTC launched from the Air Force Eastern Test Range (AFETR). Debris objects in space refer to the collection of defunct objects orbiting the Earth. Examples of debris include non-operational satellites, rocket bodies, and fragments generated from explosions, collisions, or faulty payload assembly.

Loading next visibility...
Identifier
48826, 1961-015NE
Orbit
LEO
Country
Flag of USUS
Related business
Manufacturer
Unknown
Mission
Spacecraft
Bus & Motor
Unknown
Mass
Unknown
Launch date (UTC)
1961-06-29 (65 years ago)
Launch vehicle
Unknown
Launch site
Air Force Eastern Test Range (AFETR)
Object type
Payload
Rocket body
Debris
Shape & HBR
Unknown shape, 0.1 m
Radar Cross Section
Small (<0.1 m²)

Expand to show TLE details & history
Last TLE update: 1 day ago

TLE from 1 day ago
0 THOR ABLESTAR DEB
1 48826U 61015NE  26117.79815361  .00001213  00000-0  46772-3 0  9994
2 48826  66.5958 135.1207 0046112  15.0447 158.3028 14.33106713647477
Epoch: 2026-04-27T19:09Z
TLE epoch observation values (Epoch: 2026-04-27T19:09:20.471Z)
Latitude
5.85995°
Longitude
169.47019°
Altitude
813.596 km
Speed
7.431 km/s
True Right ascension
20h 50m 21s
True Declination
5° 49' 31"
Sunlit
Object was in daylight at epoch
Visualization orbit readout
Latitude
Unknown
Longitude
Unknown
Altitude
Unknown
Speed
Unknown
Apparent Right ascension
Unknown
Apparent Declination
Unknown
Sunlit
N/A
Visualization observer readout
Local Sidereal Time
13:06:26
Azimuth
Unknown
Elevation
Unknown
Doppler factor
Unknown
Orbital elements
Apogee altitude
812.756 km
Perigee altitude
746.743 km
Semi-major axis
7,157.887 km
Eccentricity
0.00461
Inclination
66.5958°
RAAN
135.1207°
Arg. of periapsis
15.0447°
True anomaly
158.49711°
Mean anomaly
158.3028°
Eccentric anomaly
158.40006°
Mean motion
3.58398 °/min
Orbital period
100.45 mins
BSTAR
0.00046772
Loading maneuver chart data...
Computing Atmospheric mass density...
Loading historical data...
Loading historical data...
Loading historical data...
Loading historical data...
Loading historical data...
Loading historical data...
Loading historical data...

Documentation

Showing up to 5 results
|